GW0458 Weather Reports


time (UTC)temp
F
wind
direction
speed
knots
gust
knots
rain 1hr
in
rain 24hr
in
rain mn
in
humidity
%
barometer
mb
20260509142712 49 201 0.0 0.0 0.00 0.00 0.00 95 1030.4
20260509135710 47 199 0.0 0.0 0.00 0.00 0.00 99 1030.4
20260509132706 46 174 0.0 0.9 0.00 0.00 0.00 99 1030.6
20260509125703 47 199 0.0 0.9 0.00 0.00 0.00 99 1030.1
20260509122701 48 198 0.0 0.0 0.00 0.00 0.00 99 1030.4
20260509115658 48 203 0.0 0.0 0.00 0.00 0.00 99 1030.4
20260509112655 49 206 0.0 0.0 0.00 0.00 0.00 98 1030.5
20260509105655 50 210 0.0 0.0 0.00 0.00 0.00 97 1030.6
20260509102651 51 206 0.0 0.0 0.00 0.00 0.00 94 1030.9
20260509095649 52 205 0.0 0.0 0.00 0.00 0.00 93 1031.1
20260509092644 53 206 0.0 0.0 0.00 0.00 0.00 91 1031.0
20260509085640 52 204 0.0 0.0 0.00 0.00 0.00 92 1031.3
20260509082639 51 214 0.0 0.0 0.00 0.00 0.00 92 1031.3
20260509075636 50 194 0.9 0.9 0.00 0.00 0.00 94 1031.1
20260509072634 50 208 0.0 0.0 0.00 0.00 0.00 93 1031.2
20260509065631 50 198 0.0 0.0 0.00 0.00 0.00 93 1031.0
20260509062631 49 197 0.0 0.0 0.00 0.00 0.00 93 1030.5
20260509055629 52 199 1.7 1.7 0.00 0.00 0.00 88 1030.6
20260509052624 51 198 0.0 0.0 0.00 0.00 0.00 89 1030.4
20260509045619 53 200 0.0 0.0 0.00 0.00 0.00 84 1030.5
20260509042616 53 210 0.0 0.0 0.00 0.00 0.00 83 1030.2
20260509035615 54 204 0.0 0.0 0.00 0.00 0.00 81 1029.7
20260509032615 55 201 0.0 0.0 0.00 0.00 0.00 77 1029.6
20260509025610 57 207 0.0 0.0 0.00 0.00 0.00 74 1029.1
20260509022606 58 220 0.0 0.0 0.00 0.00 0.00 70 1029.1
20260509015603 61 214 0.0 0.9 0.00 0.00 0.00 66 1028.6
20260509012600 62 203 0.9 0.9 0.00 0.00 0.00 61 1028.8
20260509005600 62 177 0.9 1.7 0.00 0.00 0.00 60 1029.1
20260509002559 62 212 0.9 1.7 0.00 0.00 0.00 61 1029.3
20260508235559 62 213 0.9 1.7 0.00 0.00 0.00 60 1029.1
20260508232554 61 216 0.9 1.7 0.00 0.00 0.00 59 1029.1
20260508225554 62 207 0.0 0.9 0.00 0.00 0.00 59 1029.2
20260508222549 62 227 0.0 0.9 0.00 0.00 0.00 58 1029.3
20260508215547 64 224 1.7 1.7 0.00 0.00 0.00 56 1029.1
20260508212544 63 249 1.7 1.7 0.00 0.00 0.00 58 1029.4
20260508205542 62 192 0.0 0.9 0.00 0.00 0.00 59 1029.2
20260508202537 59 223 0.9 0.9 0.00 0.00 0.00 63 1029.0
20260508195535 58 217 0.0 0.9 0.00 0.00 0.00 65 1029.1
20260508192532 58 219 0.9 0.9 0.00 0.00 0.00 68 1029.0
20260508185530 55 222 0.9 0.9 0.00 0.00 0.00 74 1028.9
20260508182528 55 220 0.9 0.9 0.00 0.00 0.00 77 1028.7
20260508175525 53 277 0.9 1.7 0.00 0.00 0.00 81 1028.6
20260508172524 53 262 0.9 1.7 0.00 0.00 0.00 80 1028.1
20260508165523 52 199 1.7 2.6 0.00 0.00 0.00 83 1027.6
20260508162521 53 154 0.9 1.7 0.00 0.00 0.00 83 1027.4
20260508155516 51 233 2.6 2.6 0.00 0.00 0.00 84 1027.3
20260508152515 51 203 0.9 0.9 0.00 0.00 0.00 87 1027.9
20260508145512 50 157 0.9 1.7 0.00 0.00 0.00 91 1027.4